User: anonymous   Login
Location: Black Swamp Observatory
(41.3920°N, 84.1250°W)
Time: 03:18:14
(UTC-05:00)
Language:

RS-15 - Orbit

View from above orbital plane
View from above orbital plane
View from above satellite
View from above satellite

Ground track
Ground track

The orbit data is extracted from the following two-line orbital elements,

1 23439U 94085A   24064.10507385 -.00000014  00000-0  80221-3 0  9994
2 23439  64.8148 213.7046 0153560 163.3531 197.2512 11.27576232202039
Epoch (UTC): 04 March 2024 02:31:18
Eccentricity: 0.0153560
inclination: 64.8148°
perigee height: 1893 km
apogee height: 2151 km
right ascension of ascending node: 213.7046°
argument of perigee: 163.3531°
revolutions per day: 11.27576232
mean anomaly at epoch: 197.2512°
orbit number at epoch: 20203

The dashed part of the orbit path shows where the satellite is in the earth's shadow,  

DLR